When you browse on this site, cookies collect data to enhance your experience and personalize the content and advertising you see.
Visit our Privacy Policy to learn more. By continuing to use the site, you agree to this use of cookies and data.
  • In Switzerland
  • List of Countries
  • For 7 days
  • Water Temperature
  • Weather Map
  • Weather Widgets
  • user-avatar
    Login

    Hourly Weather Caracas

    Today, 23 October, Wednesday

    Time Temperature Precipitation Wind Pressure Humidity
    00:00 +18°C° 0 mm 1 mps 647 mmHg 94%
    01:00 +18°C° 0 mm 1 mps 647 mmHg 94%
    02:00 +18°C° 0 mm 1 mps 646 mmHg 94%
    03:00 +16°C° 0.1 mm 1 mps 646 mmHg 93%
    04:00 +16°C° 0.1 mm 1 mps 647 mmHg 93%
    05:00 +16°C° 0.1 mm 1 mps 647 mmHg 93%
    06:00 +18°C° 0.2 mm 1 mps 647 mmHg 91%
    07:00 +19°C° 0.2 mm 1 mps 648 mmHg 89%
    08:00 +20°C° 0.2 mm 1 mps 648 mmHg 87%
    09:00 +22°C° 0.2 mm 1 mps 649 mmHg 81%
    10:00 +23°C° 0.2 mm 1 mps 649 mmHg 75%
    11:00 +25°C° 0.2 mm 1 mps 650 mmHg 69%
    12:00 +24°C° 1.6 mm 1 mps 649 mmHg 74%
    13:00 +24°C° 1.6 mm 1 mps 649 mmHg 78%
    14:00 +24°C° 1.6 mm 1 mps 648 mmHg 82%
    15:00 +23°C° 0.8 mm 1 mps 648 mmHg 84%
    16:00 +22°C° 0.8 mm 1 mps 647 mmHg 87%
    17:00 +21°C° 0.8 mm 1 mps 647 mmHg 89%
    18:00 +21°C° 0.4 mm 1 mps 647 mmHg 90%
    19:00 +20°C° 0.4 mm 1 mps 647 mmHg 91%
    20:00 +18°C° 0.4 mm 2 mps 647 mmHg 92%
    21:00 +17°C° 0.3 mm 2 mps 647 mmHg 91%
    22:00 +17°C° 0.3 mm 2 mps 647 mmHg 90%
    23:00 +17°C° 0.3 mm 2 mps 648 mmHg 90%

    Tomorrow, 24 October, Thursday

    Time Temperature Precipitation Wind Pressure Humidity
    00:00 +16°C° 0 mm 2 mps 647 mmHg 89%
    01:00 +16°C° 0 mm 2 mps 647 mmHg 88%
    02:00 +16°C° 0 mm 2 mps 646 mmHg 88%
    03:00 +16°C° 0 mm 2 mps 646 mmHg 87%
    04:00 +16°C° 0 mm 2 mps 646 mmHg 87%
    05:00 +16°C° 0 mm 1 mps 646 mmHg 87%
    06:00 +18°C° 0 mm 1 mps 647 mmHg 85%
    07:00 +19°C° 0 mm 1 mps 648 mmHg 83%
    08:00 +20°C° 0 mm 1 mps 648 mmHg 81%
    09:00 +22°C° 0 mm 1 mps 649 mmHg 74%
    10:00 +24°C° 0 mm 1 mps 650 mmHg 66%
    11:00 +26°C° 0 mm 2 mps 651 mmHg 59%
    12:00 +26°C° 0.2 mm 2 mps 650 mmHg 60%
    13:00 +26°C° 0.2 mm 2 mps 649 mmHg 61%
    14:00 +26°C° 0.2 mm 2 mps 648 mmHg 62%
    15:00 +25°C° 0.6 mm 2 mps 648 mmHg 71%
    16:00 +24°C° 0.6 mm 2 mps 647 mmHg 79%
    17:00 +21°C° 0.6 mm 2 mps 647 mmHg 88%
    18:00 +21°C° 0.4 mm 2 mps 647 mmHg 90%
    19:00 +20°C° 0.4 mm 2 mps 647 mmHg 92%
    20:00 +19°C° 0.4 mm 2 mps 647 mmHg 94%
    21:00 +18°C° 0.7 mm 2 mps 647 mmHg 94%
    22:00 +18°C° 0.7 mm 2 mps 648 mmHg 94%
    23:00 +18°C° 0.7 mm 3 mps 648 mmHg 94%

    Day after tomorrow, 25 October, Friday

    Time Temperature Precipitation Wind Pressure Humidity
    00:00 +18°C° 0 mm 2 mps 648 mmHg 93%
    01:00 +18°C° 0 mm 2 mps 647 mmHg 92%
    02:00 +17°C° 0 mm 2 mps 647 mmHg 91%
    03:00 +17°C° 0 mm 2 mps 647 mmHg 91%
    04:00 +17°C° 0 mm 2 mps 647 mmHg 92%
    05:00 +17°C° 0 mm 2 mps 647 mmHg 92%
    06:00 +18°C° 0 mm 2 mps 647 mmHg 91%
    07:00 +19°C° 0 mm 2 mps 648 mmHg 90%
    08:00 +19°C° 0 mm 2 mps 649 mmHg 89%
    09:00 +21°C° 0.3 mm 2 mps 649 mmHg 85%
    10:00 +23°C° 0.3 mm 2 mps 650 mmHg 81%
    11:00 +24°C° 0.3 mm 2 mps 650 mmHg 78%
    12:00 +24°C° 0.7 mm 2 mps 650 mmHg 75%
    13:00 +24°C° 0.7 mm 2 mps 649 mmHg 73%
    14:00 +25°C° 0.7 mm 2 mps 648 mmHg 71%
    15:00 +24°C° 0.8 mm 2 mps 648 mmHg 77%
    16:00 +23°C° 0.8 mm 2 mps 648 mmHg 83%
    17:00 +21°C° 0.8 mm 2 mps 647 mmHg 89%
    18:00 +20°C° 0.1 mm 2 mps 648 mmHg 90%
    19:00 +19°C° 0.1 mm 2 mps 648 mmHg 91%
    20:00 +18°C° 0.1 mm 2 mps 648 mmHg 92%
    21:00 +18°C° 0 mm 2 mps 648 mmHg 91%
    22:00 +17°C° 0 mm 2 mps 648 mmHg 91%
    23:00 +17°C° 0 mm 2 mps 648 mmHg 91%

    26 October, Saturday

    Time Temperature Precipitation Wind Pressure Humidity
    00:00 +17°C° 0 mm 2 mps 648 mmHg 90%
    01:00 +17°C° 0 mm 2 mps 647 mmHg 90%
    02:00 +17°C° 0 mm 2 mps 647 mmHg 90%
    03:00 +17°C° 0.1 mm 2 mps 647 mmHg 89%
    04:00 +17°C° 0.1 mm 2 mps 647 mmHg 89%
    05:00 +17°C° 0.1 mm 2 mps 647 mmHg 89%
    06:00 +18°C° 0.1 mm 2 mps 648 mmHg 87%
    07:00 +20°C° 0.1 mm 1 mps 649 mmHg 86%
    08:00 +21°C° 0.1 mm 1 mps 649 mmHg 84%
    09:00 +21°C° 0.1 mm 2 mps 650 mmHg 78%
    10:00 +24°C° 0.1 mm 2 mps 650 mmHg 72%
    11:00 +25°C° 0.1 mm 2 mps 651 mmHg 66%
    12:00 +25°C° 0.5 mm 2 mps 650 mmHg 69%
    13:00 +25°C° 0.5 mm 2 mps 649 mmHg 72%
    14:00 +24°C° 0.5 mm 2 mps 649 mmHg 76%
    15:00 +23°C° 1 mm 2 mps 648 mmHg 80%
    16:00 +23°C° 1 mm 2 mps 648 mmHg 84%
    17:00 +21°C° 1 mm 2 mps 648 mmHg 89%
    18:00 +20°C° 1 mm 2 mps 648 mmHg 90%
    19:00 +19°C° 1 mm 2 mps 648 mmHg 92%
    20:00 +18°C° 1 mm 2 mps 648 mmHg 94%
    21:00 +18°C° 0 mm 2 mps 648 mmHg 94%
    22:00 +18°C° 0 mm 2 mps 648 mmHg 93%
    23:00 +17°C° 0 mm 2 mps 648 mmHg 93%

    27 October, Sunday

    Time Temperature Precipitation Wind Pressure Humidity
    00:00 +17°C° 0 mm 2 mps 648 mmHg 92%
    01:00 +17°C° 0 mm 2 mps 647 mmHg 92%
    02:00 +17°C° 0 mm 2 mps 647 mmHg 91%
    03:00 +17°C° 0 mm 2 mps 647 mmHg 91%
    04:00 +16°C° 0 mm 2 mps 647 mmHg 90%
    05:00 +16°C° 0 mm 2 mps 647 mmHg 90%
    06:00 +17°C° 0 mm 2 mps 648 mmHg 89%
    07:00 +18°C° 0 mm 2 mps 648 mmHg 87%
    08:00 +19°C° 0 mm 2 mps 649 mmHg 86%
    09:00 +21°C° 0 mm 2 mps 650 mmHg 79%
    10:00 +24°C° 0 mm 2 mps 650 mmHg 73%
    11:00 +25°C° 0 mm 2 mps 651 mmHg 66%
    12:00 +25°C° 0.4 mm 3 mps 650 mmHg 67%
    13:00 +25°C° 0.4 mm 3 mps 649 mmHg 67%
    14:00 +25°C° 0.4 mm 3 mps 648 mmHg 68%
    15:00 +24°C° 0.5 mm 3 mps 648 mmHg 75%
    16:00 +22°C° 0.5 mm 3 mps 648 mmHg 81%
    17:00 +21°C° 0.5 mm 3 mps 647 mmHg 88%
    18:00 +20°C° 0.1 mm 3 mps 647 mmHg 90%
    19:00 +19°C° 0.1 mm 3 mps 648 mmHg 91%
    20:00 +18°C° 0.1 mm 2 mps 648 mmHg 93%
    21:00 +18°C° 0 mm 2 mps 648 mmHg 92%
    22:00 +17°C° 0 mm 2 mps 648 mmHg 92%
    23:00 +17°C° 0 mm 2 mps 648 mmHg 91%

    28 October, Monday

    Time Temperature Precipitation Wind Pressure Humidity
    00:00 +17°C° 0 mm 2 mps 647 mmHg 91%
    01:00 +17°C° 0 mm 2 mps 647 mmHg 91%
    02:00 +17°C° 0 mm 2 mps 647 mmHg 91%
    03:00 +17°C° 0 mm 2 mps 647 mmHg 91%
    04:00 +17°C° 0 mm 2 mps 647 mmHg 92%
    05:00 +17°C° 0 mm 2 mps 647 mmHg 92%
    06:00 +18°C° 0 mm 2 mps 648 mmHg 89%
    07:00 +19°C° 0 mm 2 mps 648 mmHg 86%
    08:00 +20°C° 0 mm 2 mps 649 mmHg 83%
    09:00 +21°C° 0 mm 2 mps 650 mmHg 74%
    10:00 +24°C° 0 mm 2 mps 650 mmHg 65%
    11:00 +26°C° 0 mm 3 mps 651 mmHg 56%
    12:00 +26°C° 0.2 mm 3 mps 650 mmHg 59%
    13:00 +26°C° 0.2 mm 3 mps 649 mmHg 62%
    14:00 +26°C° 0.2 mm 3 mps 648 mmHg 65%
    15:00 +25°C° 0.7 mm 3 mps 648 mmHg 73%
    16:00 +22°C° 0.7 mm 3 mps 647 mmHg 81%
    17:00 +21°C° 0.7 mm 2 mps 647 mmHg 89%
    18:00 +20°C° 0.9 mm 2 mps 647 mmHg 91%
    19:00 +20°C° 0.9 mm 2 mps 647 mmHg 92%
    20:00 +19°C° 0.9 mm 2 mps 648 mmHg 94%
    21:00 +18°C° 0.2 mm 2 mps 648 mmHg 93%
    22:00 +18°C° 0.2 mm 2 mps 647 mmHg 93%
    23:00 +18°C° 0.2 mm 2 mps 647 mmHg 92%

    29 October, Tuesday

    Time Temperature Precipitation Wind Pressure Humidity
    00:00 +18°C° 0.1 mm 2 mps 647 mmHg 92%
    01:00 +17°C° 0.1 mm 2 mps 647 mmHg 92%
    02:00 +17°C° 0.1 mm 2 mps 647 mmHg 92%
    03:00 +17°C° 0 mm 2 mps 647 mmHg 92%
    04:00 +17°C° 0 mm 2 mps 646 mmHg 92%
    05:00 +17°C° 0 mm 2 mps 646 mmHg 91%
    06:00 +18°C° 0.1 mm 2 mps 647 mmHg 90%
    07:00 +18°C° 0.1 mm 2 mps 648 mmHg 88%
    08:00 +19°C° 0.1 mm 2 mps 649 mmHg 87%
    09:00 +21°C° 0.1 mm 2 mps 649 mmHg 80%
    10:00 +24°C° 0.1 mm 2 mps 650 mmHg 73%
    11:00 +25°C° 0.1 mm 3 mps 650 mmHg 66%
    12:00 +25°C° 1.3 mm 3 mps 649 mmHg 69%
    13:00 +25°C° 1.3 mm 3 mps 649 mmHg 73%
    14:00 +24°C° 1.3 mm 3 mps 648 mmHg 76%
    15:00 +23°C° 0.8 mm 2 mps 647 mmHg 80%
    16:00 +23°C° 0.8 mm 2 mps 647 mmHg 83%
    17:00 +21°C° 0.8 mm 2 mps 647 mmHg 87%
    18:00 +20°C° 0.1 mm 2 mps 647 mmHg 89%
    19:00 +20°C° 0.1 mm 2 mps 647 mmHg 92%
    20:00 +19°C° 0.1 mm 2 mps 647 mmHg 94%
    Show more